www.srh.weather.gov   
NOAA logo - Click to go to the NOAA homepage   NWS logo
Other Public Products
Enter Your "City, ST" or zip code   
Current Version              Previous Version:    01  02  03  04  05  06  07  08  09  10  11  12  13  14  15  16  17  18  19  20  21  22  23  24  25  26  27  28  29  30  
   31  32  33  34  35  36  37  38  39  40  41  42  43  44  45  46  47  48  49  50  51  52  53  54  55  56  57  58  59  60  
[Printable]
625
FPUS83 KFGF 230210
OPUFGF
PRAIRIE TO PINES WEATHER ROUNDUP
NATIONAL WEATHER SERVICE EASTERN NORTH DAKOTA/GRAND FORKS ND
900 PM CDT WED OCT 22 2014

 **SATELLITE DATA USED TO AUGMENT SKY COVER AT AUTOMATED STATIONS**
 *****  WEATHER ACROSS EASTERN NORTH DAKOTA  *****

CITY           SKY/WX    TMP DP  RH WIND       PRES   REMARKS
GRAND FORKS    CLOUDY    51  50  96 S8        29.84S
GRAND FORKS AF CLOUDY    52  51  99 S8        29.84S
GRAND CITY NWS   N/A     52 N/A N/A SW10        N/A
BUXTON         NOT AVBL
DEVILS LAKE    MOCLDY    55  41  58 SW9       29.81S
FARGO          CLOUDY    56  53  90 SW9       29.89S
WAHPETON ARPT  CLOUDY    54  50  87 W6        29.92S
$$

 *****  WEATHER ACROSS CENTRAL AND WESTERN NORTH DAKOTA  *****

CITY           SKY/WX    TMP DP  RH WIND       PRES   REMARKS
JAMESTOWN      CLEAR     50  46  86 SW7       29.87R
BISMARCK       CLEAR     52  37  56 SW7       29.90R
MINOT          CLOUDY    56  42  59 SW5       29.82R
MINOT AFB      MOCLDY    53  44  71 SW5       29.81R
GARRISON         N/A     46  38  73 SW6       29.86R
WILLISTON      CLEAR     49  33  54 W9        29.86R
DICKINSON      CLEAR     45  32  60 W9        29.91R
HETTINGER      CLEAR     42  29  59 NW3       29.96R
$$

 *****  OTHER OBSERVATIONS NORTHEAST NORTH DAKOTA  *****

CITY           SKY/WX    TMP DP  RH WIND       PRES   REMARKS
WALHALLA       FAIR      50  50 100 S7        29.78S
LANGDON        FAIR      48  46  93 SW10      29.79R
CAVALIER       FAIR      52  50  93 S9        29.79S
GRAFTON        NOT AVBL
CANDO          NOT AVBL
FORT TOTTEN      N/A     53  43  68 SW3       29.95
ROLLA          NOT AVBL
RUGBY          MOCLDY    55  45  67 W9        29.81S
 ***** THE ABOVE OBSERVATIONS ARE NON NWS ARE NOT QUALITY
        CONTROLLED AND MAY MIS-REPORT RAIN FOR SNOW...
$$

 *****  OTHER OBSERVATIONS SOUTHEAST NORTH DAKOTA *****

CITY           SKY/WX    TMP DP  RH WIND       PRES   REMARKS
COOPERSTOWN    NOT AVBL
VALLEY CITY    FAIR      48  48 100 S9        29.87F
OAKES            N/A     50  50 100 S9        29.91S
GWINNER        MOCLDY    52  52 100 SW8       29.92S
SHEYENNE NWR     N/A     53  52  95 SW5       29.95S
BUFFALO        NOT AVBL
WYNDMERE         N/A     54  54 100 SW5         N/A
 ***** THE ABOVE OBSERVATIONS ARE NON NWS ARE NOT QUALITY
       CONTROLLED AND MAY MIS-REPORT RAIN FOR SNOW...
$$

  *****  WEATHER ACROSS NORTHERN MINNESOTA  *****

CITY           SKY/WX    TMP DP  RH WIND       PRES   REMARKS
FLAG ISLAND    CLOUDY    52  46  82 S21       29.82S
WARROAD        DRIZZLE   57  50  77 S9G16     29.85R
ROSEAU         DRIZZLE   54  48  82 S13       29.84R
HALLOCK        CLOUDY    54  52  94 S9        29.81S
THF RVR FALLS  CLOUDY    55  52  88 S9        29.87R
HALSTAD          N/A     55  54  96 SW9         N/A
FOSSTON        LGT RAIN  52  52 100 S12       29.90R
BAUDETTE       CLOUDY    56  43  61 S10       29.88S
WASKISH        CLOUDY    55  45  67 SE10G18   29.90S
CROOKSTON      CLOUDY    54  54 100 S8        29.87S
$$
  *****  WEATHER ACROSS CENTRAL AND WEST MINNESOTA  *****

CITY           SKY/WX    TMP DP  RH WIND       PRES   REMARKS
BEMIDJI        DRIZZLE   56  44  65 S10       29.92R
PARK RAPIDS    CLOUDY    54  47  77 S10       29.93R
WADENA         RAIN      54  50  87 S8        29.93F
DETROIT LAKES  LGT RAIN  54  54 100 SW7       29.93R
MOORHEAD       CLOUDY    55  55 100 SW5       29.91S
FERGUS FALLS   CLOUDY    55  54  94 W6        29.93S
ELBOW LAKE     CLOUDY    56  55  97 SW9       29.93R
MORRIS MN      CLOUDY    57  55  94 SW7       29.93R FOG
STAPLES        LGT RAIN  55  45  67 S9G16     29.94S
WHEATON        CLOUDY    54  52  94 W6        29.95R
$$
  *****  WEATHER ELSEWHERE ACROSS MINNESOTA  *****

CITY           SKY/WX    TMP DP  RH WIND       PRES   REMARKS
DULUTH         FAIR      52  35  52 S10       30.05S
INTRNTL FALLS  CLOUDY    55  41  59 S7        29.94S
ELY            NOT AVBL
CLOQUET        MOCLDY    50  37  62 SE5       30.04F
BRAINERD       CLOUDY    54  42  64 S10G22    29.98F
HIBBING        CLOUDY    52  37  56 S10       30.02S
ALEXANDRIA     RAIN      54  51  90 S13       29.94F FOG
SAINT CLOUD    PTCLDY    58  42  55 SE15      29.99F
MINNEAPOLIS    CLOUDY    56  40  55 S12       30.05S
$$

  *****  WEATHER ACROSS SOUTH DAKOTA  *****

CITY           SKY/WX    TMP DP  RH WIND       PRES   REMARKS
SIOUX FALLS    CLOUDY    56  55  97 VRB5      30.01R
BROOKINGS      NOT AVBL
WATERTOWN      CLOUDY    53  52  96 W9        29.96S
HURON          PTCLDY    52  50  93 SW7       29.98S
SISSETON         N/A     56  53  90 W10       29.92S
ABERDEEN       PTCLDY    50  48  93 S8        29.94S
MITCHELL       PTCLDY    53  52  96 SW6       30.01R
PIERRE         CLEAR     53  39  59 SW7       29.97R
MOBRIDGE       CLEAR     53  38  56 W6        29.92R
RAPID CITY     CLEAR     44  31  60 W5        30.02S
$$

  *****  SOME WEATHER IN NEARBY STATES *****

CITY           SKY/WX    TMP DP  RH WIND       PRES   REMARKS
GLASGOW MT     CLEAR     52  31  44 W3        29.87R
GREAT FALLS MT CLEAR     50  33  52 SW15      29.89R
CHEYENNE WY    CLEAR     51  25  36 SW7       30.16R
SCOTTSBLUFF NE CLEAR     56  25  30 S5        30.08R
OMAHA NE       RAIN      63  61  93 CALM      30.07S FOG
DES MOINES IA  MOCLDY    59  45  59 SE13      30.12S
DAVENPORT IA   CLEAR     45  35  68 SE8       30.24R
CHICAGO IL     CLEAR     42  36  79 SE5       30.26S
EAU CLAIRE WI  CLOUDY    56  36  47 S8        30.13S
LA CROSSE WI   MOCLDY    55  37  50 S8        30.16F
$$

  *****  SOME NATIONAL WEATHER *****

CITY           SKY/WX    TMP DP  RH WIND       PRES   REMARKS
LA GUARDIA NY  LGT RAIN  52  48  86 N20G31    29.74F
RALEIGH NC     PTCLDY    55  41  59 VRB3      30.03R
ATLANTA GA     CLEAR     55  42  61 NW10      30.10S
NEW ORLEANS LA CLEAR     70  56  61 NE5       30.06R
OKLAHOMA CITY  LGT RAIN  64  59  83 CALM      30.12S
ALBUQUERQUE NM PTCLDY    66  40  38 S6        30.16R
SALT LAKE CITY MOCLDY    52  35  52 CALM      30.17R
LOS ANGELES CA PTCLDY    69  65  86 W8        29.92R
BOISE ID       CLOUDY    62  30  29 SE10      29.99F
SEATTLE WA     LGT RAIN  56  52  86 SE15      29.57F
$$

*** WEATHER ACROSS MANITOBA...SASKATCHEWAN AND ONTARIO ***
                ***ONTARIO***

CITY           SKY/WX    TMP DP  RH WIND       PRES   REMARKS
GERALDTON      PTCLDY    36  34  93 S7        30.13F
THUNDER BAY    MOCLDY    41  39  93 NE6       30.12F
SIOUX LOOKOUT  PTCLDY    52  39  62 S12G21    29.92S
TORONTO        MOCLDY    48  41  76 N16       30.24S
BIG TROUT LK   LGT RAIN  50  43  76 SW8       29.83S
PICKLE LAKE    MOCLDY    50  34  53 S13G21    29.91R THUNDER
DRYDEN         MOCLDY    54  41  62 S15G23    29.90S
KENORA         CLOUDY    57  45  62 S15G25    29.85R
$$
                *** MANITOBA***

CITY           SKY/WX    TMP DP  RH WIND       PRES   REMARKS
BRANDON        PTCLDY    48  45  87 W10       29.73R
DAUPHIN        PTCLDY    54  48  82 W14       29.66R
ISLAND LAKE    NOT AVBL
PILOT MOUND      N/A     54  45  71 SW10        N/A
THE PAS        PTCLDY    48  45  87 N6        29.65S
THOMPSON       CLOUDY    46  46 100 NE3       29.70S
WINNIPEG       CLOUDY    54  52  94 S13       29.75F
LYNN LAKE      FOG       41  39  93 NE8       29.76S VSB 1/2
CHURCHILL      LGT RAIN  37  37 100 NE13      29.87R
GILLAM         LGT RAIN  41  39  93 NE9       29.77R
$$
                ***SASKATCHEWAN***

CITY           SKY/WX    TMP DP  RH WIND       PRES   REMARKS
ESTEVAN        PTCLDY    46  43  87 SW8       29.81R
KINDERSLEY     MOCLDY    43  36  75 SE10      29.73S
LLOYDMINSTER   MOCLDY    46  32  57 SE8       29.68F
PRINCE ALBERT  CLOUDY    46  45  93 W7        29.73R
REGINA         CLOUDY    46  45  93 SW5       29.79R



National Weather Service
Disclaimer
Last Modified: August 31, 2005
Privacy Policy